Time,TemperatureF,DewpointF,PressureIn,WindDirection,WindDirectionDegrees,WindSpeedMPH,WindSpeedGustMPH,Humidity,HourlyPrecipIn,Conditions,Clouds,dailyrainin,SoftwareType,DateUTC
2013-07-12 00:01:00,70.5,70.5,30.00,ENE,73,0.0,0.0,100,0.00,,,0.00,WUHU216DAVISWMX,2013-07-12 04:01:00,
2013-07-12 00:06:00,70.4,70.4,30.00,ENE,73,0.0,0.0,100,0.00,,,0.00,WUHU216DAVISWMX,2013-07-12 04:06:00,
2013-07-12 00:11:00,70.5,70.5,30.00,ENE,73,0.0,0.0,100,0.00,,,0.00,WUHU216DAVISWMX,2013-07-12 04:11:00,
2013-07-12 00:16:00,70.5,70.5,30.00,ENE,73,0.0,0.0,100,0.00,,,0.00,WUHU216DAVISWMX,2013-07-12 04:16:00,
2013-07-12 00:21:00,70.0,70.0,30.00,ENE,73,0.0,0.0,100,0.00,,,0.00,WUHU216DAVISWMX,2013-07-12 04:21:00,
2013-07-12 00:26:00,69.8,69.8,30.00,ENE,73,0.0,0.0,100,0.00,,,0.00,WUHU216DAVISWMX,2013-07-12 04:26:00,
2013-07-12 00:31:00,70.1,70.1,30.00,ENE,73,0.0,0.0,100,0.00,,,0.00,WUHU216DAVISWMX,2013-07-12 04:31:00,
2013-07-12 00:36:00,69.7,69.7,30.00,ENE,73,0.0,0.0,100,0.00,,,0.00,WUHU216DAVISWMX,2013-07-12 04:36:00,
2013-07-12 00:41:00,69.4,69.4,30.00,ENE,73,0.0,0.0,100,0.00,,,0.00,WUHU216DAVISWMX,2013-07-12 04:41:00,
2013-07-12 00:46:00,69.6,69.6,30.00,ENE,73,0.0,0.0,100,0.00,,,0.00,WUHU216DAVISWMX,2013-07-12 04:46:00,
2013-07-12 00:51:00,69.5,69.5,30.00,ENE,73,0.0,0.0,100,0.00,,,0.00,WUHU216DAVISWMX,2013-07-12 04:51:00,
2013-07-12 00:56:00,69.0,69.0,30.00,ENE,73,0.0,0.0,100,0.00,,,0.00,WUHU216DAVISWMX,2013-07-12 04:56:00,
2013-07-12 01:01:00,68.9,68.9,30.00,ENE,73,0.0,0.0,100,0.00,,,0.00,WUHU216DAVISWMX,2013-07-12 05:01:00,
2013-07-12 01:06:00,68.9,68.9,30.01,ENE,73,0.0,0.0,100,0.00,,,0.00,WUHU216DAVISWMX,2013-07-12 05:06:00,
2013-07-12 01:11:00,68.7,68.4,30.01,ENE,73,0.0,1.0,99,0.00,,,0.00,WUHU216DAVISWMX,2013-07-12 05:11:00,
2013-07-12 01:16:00,68.9,68.6,30.01,ENE,73,0.0,1.0,99,0.00,,,0.00,WUHU216DAVISWMX,2013-07-12 05:16:00,
2013-07-12 01:21:00,68.6,68.3,30.01,ENE,73,0.0,0.0,99,0.00,,,0.00,WUHU216DAVISWMX,2013-07-12 05:21:00,
2013-07-12 01:26:00,68.5,68.2,30.01,ENE,73,0.0,0.0,99,0.00,,,0.00,WUHU216DAVISWMX,2013-07-12 05:26:00,
2013-07-12 01:31:00,68.4,68.1,30.01,ENE,73,0.0,0.0,99,0.00,,,0.00,WUHU216DAVISWMX,2013-07-12 05:31:00,
2013-07-12 01:36:00,68.5,68.2,30.01,ENE,73,0.0,0.0,99,0.00,,,0.00,WUHU216DAVISWMX,2013-07-12 05:36:00,
2013-07-12 01:41:00,68.2,67.6,30.01,ENE,73,0.0,0.0,98,0.00,,,0.00,WUHU216DAVISWMX,2013-07-12 05:41:00,
2013-07-12 01:46:00,68.1,67.8,30.01,ENE,73,0.0,0.0,99,0.00,,,0.00,WUHU216DAVISWMX,2013-07-12 05:46:00,
2013-07-12 01:51:00,68.4,68.1,30.01,ENE,73,0.0,0.0,99,0.00,,,0.00,WUHU216DAVISWMX,2013-07-12 05:51:00,
2013-07-12 01:56:00,68.1,67.8,30.02,ENE,73,0.0,0.0,99,0.00,,,0.00,WUHU216DAVISWMX,2013-07-12 05:56:00,
2013-07-12 02:01:00,67.9,67.6,30.02,ENE,73,0.0,0.0,99,0.00,,,0.00,WUHU216DAVISWMX,2013-07-12 06:01:00,
2013-07-12 02:06:00,67.8,67.5,30.02,ENE,73,0.0,0.0,99,0.00,,,0.00,WUHU216DAVISWMX,2013-07-12 06:06:00,
2013-07-12 02:11:00,68.1,67.8,30.02,ENE,73,0.0,0.0,99,0.00,,,0.00,WUHU216DAVISWMX,2013-07-12 06:11:00,
2013-07-12 02:16:00,68.0,67.7,30.02,ENE,73,0.0,0.0,99,0.00,,,0.00,WUHU216DAVISWMX,2013-07-12 06:16:00,
2013-07-12 02:21:00,67.8,67.5,30.02,ENE,73,0.0,0.0,99,0.00,,,0.00,WUHU216DAVISWMX,2013-07-12 06:21:00,
2013-07-12 02:26:00,67.8,67.5,30.02,ENE,73,0.0,0.0,99,0.00,,,0.00,WUHU216DAVISWMX,2013-07-12 06:26:00,
2013-07-12 02:31:00,67.8,67.5,30.02,ENE,73,0.0,0.0,99,0.00,,,0.00,WUHU216DAVISWMX,2013-07-12 06:31:00,
2013-07-12 02:36:00,67.8,67.5,30.02,ENE,73,0.0,0.0,99,0.00,,,0.00,WUHU216DAVISWMX,2013-07-12 06:36:00,
2013-07-12 02:41:00,67.5,67.2,30.03,ENE,73,0.0,0.0,99,0.00,,,0.00,WUHU216DAVISWMX,2013-07-12 06:41:00,
2013-07-12 02:46:00,67.6,67.3,30.03,ENE,73,0.0,0.0,99,0.00,,,0.00,WUHU216DAVISWMX,2013-07-12 06:46:00,
2013-07-12 02:51:00,67.7,67.4,30.03,ENE,73,0.0,0.0,99,0.00,,,0.00,WUHU216DAVISWMX,2013-07-12 06:51:00,
2013-07-12 02:56:00,67.4,67.1,30.03,ENE,73,0.0,0.0,99,0.00,,,0.00,WUHU216DAVISWMX,2013-07-12 06:56:00,
2013-07-12 03:01:00,67.7,67.4,30.03,ENE,73,0.0,0.0,99,0.00,,,0.00,WUHU216DAVISWMX,2013-07-12 07:01:00,
2013-07-12 03:06:00,67.3,67.0,30.03,ENE,73,0.0,0.0,99,0.00,,,0.00,WUHU216DAVISWMX,2013-07-12 07:06:00,
2013-07-12 03:11:00,67.5,67.2,30.04,ENE,73,0.0,0.0,99,0.00,,,0.00,WUHU216DAVISWMX,2013-07-12 07:11:00,
2013-07-12 03:16:00,67.4,67.1,30.04,ENE,73,0.0,0.0,99,0.00,,,0.00,WUHU216DAVISWMX,2013-07-12 07:16:00,
2013-07-12 03:21:00,67.1,66.8,30.04,ENE,73,0.0,0.0,99,0.00,,,0.00,WUHU216DAVISWMX,2013-07-12 07:21:00,
2013-07-12 03:26:00,66.9,66.6,30.04,ENE,73,0.0,0.0,99,0.00,,,0.00,WUHU216DAVISWMX,2013-07-12 07:26:00,
2013-07-12 03:31:00,66.9,66.6,30.04,ENE,73,0.0,0.0,99,0.00,,,0.00,WUHU216DAVISWMX,2013-07-12 07:31:00,
2013-07-12 03:36:00,66.7,66.4,30.05,ENE,73,0.0,0.0,99,0.00,,,0.00,WUHU216DAVISWMX,2013-07-12 07:36:00,
2013-07-12 03:41:00,66.6,66.3,30.05,ENE,73,0.0,0.0,99,0.00,,,0.00,WUHU216DAVISWMX,2013-07-12 07:41:00,
2013-07-12 03:46:00,66.6,66.3,30.05,ENE,73,0.0,0.0,99,0.00,,,0.00,WUHU216DAVISWMX,2013-07-12 07:46:00,
2013-07-12 03:51:00,66.8,66.5,30.05,ENE,73,0.0,0.0,99,0.00,,,0.00,WUHU216DAVISWMX,2013-07-12 07:51:00,
2013-07-12 03:56:00,66.8,66.5,30.05,ENE,73,0.0,0.0,99,0.00,,,0.00,WUHU216DAVISWMX,2013-07-12 07:56:00,
2013-07-12 04:01:00,66.5,66.2,30.06,ENE,73,0.0,0.0,99,0.00,,,0.00,WUHU216DAVISWMX,2013-07-12 08:01:00,
2013-07-12 04:06:00,66.6,66.3,30.06,ENE,73,0.0,0.0,99,0.00,,,0.00,WUHU216DAVISWMX,2013-07-12 08:06:00,
2013-07-12 04:11:00,66.7,66.4,30.06,ENE,73,0.0,0.0,99,0.00,,,0.00,WUHU216DAVISWMX,2013-07-12 08:11:00,
2013-07-12 04:16:00,66.3,66.0,30.06,ENE,73,0.0,0.0,99,0.00,,,0.00,WUHU216DAVISWMX,2013-07-12 08:16:00,
2013-07-12 04:21:00,66.4,66.4,30.06,ENE,73,0.0,0.0,100,0.00,,,0.00,WUHU216DAVISWMX,2013-07-12 08:21:00,
2013-07-12 04:26:00,66.2,65.9,30.06,ENE,73,0.0,0.0,99,0.00,,,0.00,WUHU216DAVISWMX,2013-07-12 08:26:00,
2013-07-12 04:31:00,66.4,66.1,30.07,ENE,73,0.0,0.0,99,0.00,,,0.00,WUHU216DAVISWMX,2013-07-12 08:31:00,
2013-07-12 04:36:00,66.1,65.8,30.07,ENE,73,0.0,0.0,99,0.00,,,0.00,WUHU216DAVISWMX,2013-07-12 08:36:00,
2013-07-12 04:41:00,66.3,66.0,30.07,ENE,73,0.0,0.0,99,0.00,,,0.00,WUHU216DAVISWMX,2013-07-12 08:41:00,
2013-07-12 04:46:00,66.3,66.3,30.07,ENE,73,0.0,0.0,100,0.00,,,0.00,WUHU216DAVISWMX,2013-07-12 08:46:00,
2013-07-12 04:51:00,65.9,65.9,30.08,ENE,73,0.0,0.0,100,0.00,,,0.00,WUHU216DAVISWMX,2013-07-12 08:51:00,
2013-07-12 04:56:00,65.8,65.5,30.08,ENE,73,0.0,0.0,99,0.00,,,0.00,WUHU216DAVISWMX,2013-07-12 08:56:00,
2013-07-12 05:01:00,66.0,65.7,30.08,ENE,73,0.0,0.0,99,0.00,,,0.00,WUHU216DAVISWMX,2013-07-12 09:01:00,
2013-07-12 05:06:00,66.0,66.0,30.08,ENE,73,0.0,0.0,100,0.00,,,0.00,WUHU216DAVISWMX,2013-07-12 09:06:00,
2013-07-12 05:11:00,66.1,65.8,30.08,ENE,73,0.0,0.0,99,0.00,,,0.00,WUHU216DAVISWMX,2013-07-12 09:11:00,
2013-07-12 05:16:00,65.7,65.4,30.08,ENE,73,0.0,0.0,99,0.00,,,0.00,WUHU216DAVISWMX,2013-07-12 09:16:00,
2013-07-12 05:21:00,65.7,65.4,30.08,ENE,73,0.0,0.0,99,0.00,,,0.00,WUHU216DAVISWMX,2013-07-12 09:21:00,
2013-07-12 05:26:00,65.7,65.7,30.09,ENE,73,0.0,0.0,100,0.00,,,0.00,WUHU216DAVISWMX,2013-07-12 09:26:00,
2013-07-12 05:31:00,65.7,65.7,30.09,ENE,73,0.0,0.0,100,0.00,,,0.00,WUHU216DAVISWMX,2013-07-12 09:31:00,
2013-07-12 05:36:00,65.7,65.7,30.09,ENE,73,0.0,0.0,100,0.00,,,0.00,WUHU216DAVISWMX,2013-07-12 09:36:00,
2013-07-12 05:41:00,66.0,65.7,30.10,ENE,73,0.0,0.0,99,0.00,,,0.00,WUHU216DAVISWMX,2013-07-12 09:41:00,
2013-07-12 05:46:00,66.0,65.7,30.10,ENE,73,0.0,0.0,99,0.00,,,0.00,WUHU216DAVISWMX,2013-07-12 09:46:00,
2013-07-12 05:51:00,66.1,65.8,30.10,ENE,73,0.0,0.0,99,0.00,,,0.00,WUHU216DAVISWMX,2013-07-12 09:51:00,
2013-07-12 05:56:00,66.1,65.8,30.10,ENE,73,0.0,0.0,99,0.00,,,0.00,WUHU216DAVISWMX,2013-07-12 09:56:00,
2013-07-12 06:01:00,66.1,66.1,30.10,ENE,73,0.0,0.0,100,0.00,,,0.00,WUHU216DAVISWMX,2013-07-12 10:01:00,
2013-07-12 06:06:00,65.9,65.9,30.10,ENE,73,0.0,0.0,100,0.00,,,0.00,WUHU216DAVISWMX,2013-07-12 10:06:00,
2013-07-12 06:11:00,66.2,66.2,30.10,ENE,73,0.0,0.0,100,0.00,,,0.00,WUHU216DAVISWMX,2013-07-12 10:11:00,
2013-07-12 06:16:00,66.0,66.0,30.10,ENE,73,0.0,0.0,100,0.00,,,0.00,WUHU216DAVISWMX,2013-07-12 10:16:00,
2013-07-12 06:21:00,66.3,66.3,30.10,ENE,73,0.0,0.0,100,0.00,,,0.00,WUHU216DAVISWMX,2013-07-12 10:21:00,
2013-07-12 06:26:00,66.2,66.2,30.10,ENE,73,0.0,0.0,100,0.00,,,0.00,WUHU216DAVISWMX,2013-07-12 10:26:00,
2013-07-12 06:31:00,66.2,65.9,30.10,ENE,73,0.0,0.0,99,0.00,,,0.00,WUHU216DAVISWMX,2013-07-12 10:31:00,
2013-07-12 06:36:00,66.6,66.3,30.10,ENE,73,0.0,0.0,99,0.00,,,0.00,WUHU216DAVISWMX,2013-07-12 10:36:00,
2013-07-12 06:41:00,66.5,66.5,30.11,ENE,73,0.0,0.0,100,0.00,,,0.00,WUHU216DAVISWMX,2013-07-12 10:41:00,
2013-07-12 06:46:00,66.9,66.9,30.11,ENE,73,0.0,0.0,100,0.00,,,0.00,WUHU216DAVISWMX,2013-07-12 10:46:00,
2013-07-12 06:51:00,66.8,66.5,30.12,ENE,73,0.0,0.0,99,0.00,,,0.00,WUHU216DAVISWMX,2013-07-12 10:51:00,
2013-07-12 06:56:00,67.3,66.7,30.12,ENE,73,0.0,0.0,98,0.00,,,0.00,WUHU216DAVISWMX,2013-07-12 10:56:00,
2013-07-12 07:01:00,67.5,66.9,30.12,ENE,73,0.0,0.0,98,0.00,,,0.00,WUHU216DAVISWMX,2013-07-12 11:01:00,
2013-07-12 07:06:00,67.5,66.3,30.12,ENE,73,0.0,0.0,96,0.00,,,0.00,WUHU216DAVISWMX,2013-07-12 11:06:00,
2013-07-12 07:11:00,67.3,65.8,30.12,ENE,73,0.0,2.0,95,0.00,,,0.00,WUHU216DAVISWMX,2013-07-12 11:11:00,
2013-07-12 07:16:00,67.3,65.8,30.12,North,0,0.0,2.0,95,0.00,,,0.00,WUHU216DAVISWMX,2013-07-12 11:16:00,
2013-07-12 07:21:00,67.6,66.1,30.12,North,0,0.0,2.0,95,0.00,,,0.00,WUHU216DAVISWMX,2013-07-12 11:21:00,
2013-07-12 07:26:00,67.7,65.6,30.12,North,0,0.0,0.0,93,0.00,,,0.00,WUHU216DAVISWMX,2013-07-12 11:26:00,
2013-07-12 07:31:00,67.8,66.0,30.13,North,0,0.0,0.0,94,0.00,,,0.00,WUHU216DAVISWMX,2013-07-12 11:31:00,
2013-07-12 07:36:00,67.7,65.6,30.13,North,0,0.0,0.0,93,0.00,,,0.00,WUHU216DAVISWMX,2013-07-12 11:36:00,
2013-07-12 07:41:00,67.7,65.9,30.13,North,0,0.0,0.0,94,0.00,,,0.00,WUHU216DAVISWMX,2013-07-12 11:41:00,
2013-07-12 07:46:00,67.8,65.4,30.13,North,0,0.0,1.0,92,0.00,,,0.00,WUHU216DAVISWMX,2013-07-12 11:46:00,
2013-07-12 07:51:00,68.1,65.3,30.13,North,0,0.0,1.0,91,0.00,,,0.00,WUHU216DAVISWMX,2013-07-12 11:51:00,
2013-07-12 07:56:00,68.0,65.2,30.13,North,0,0.0,1.0,91,0.00,,,0.00,WUHU216DAVISWMX,2013-07-12 11:56:00,
2013-07-12 08:01:00,68.3,64.9,30.13,North,0,0.0,2.0,89,0.00,,,0.00,WUHU216DAVISWMX,2013-07-12 12:01:00,
2013-07-12 08:06:00,68.4,65.0,30.14,North,0,1.0,2.0,89,0.00,,,0.00,WUHU216DAVISWMX,2013-07-12 12:06:00,
2013-07-12 08:11:00,68.7,65.0,30.14,North,0,1.0,2.0,88,0.00,,,0.00,WUHU216DAVISWMX,2013-07-12 12:11:00,
2013-07-12 08:16:00,68.8,65.4,30.14,North,0,1.0,2.0,89,0.00,,,0.00,WUHU216DAVISWMX,2013-07-12 12:16:00,
2013-07-12 08:21:00,69.0,65.6,30.14,North,0,0.0,1.0,89,0.00,,,0.00,WUHU216DAVISWMX,2013-07-12 12:21:00,
2013-07-12 08:26:00,68.9,65.5,30.14,North,0,0.0,1.0,89,0.00,,,0.00,WUHU216DAVISWMX,2013-07-12 12:26:00,
2013-07-12 08:32:00,69.3,66.2,30.14,East,81,0.0,1.0,90,0.00,,,0.00,WUHU216DAVISWMX,2013-07-12 12:32:00,
2013-07-12 08:42:00,69.3,65.3,30.14,NNE,26,0.0,2.0,87,0.00,,,0.00,WUHU216DAVISWMX,2013-07-12 12:42:00,
2013-07-12 08:47:00,69.9,66.2,30.15,NNE,26,1.0,2.0,88,0.00,,,0.00,WUHU216DAVISWMX,2013-07-12 12:47:00,
2013-07-12 08:52:00,70.2,66.2,30.14,NNE,26,1.0,2.0,87,0.00,,,0.00,WUHU216DAVISWMX,2013-07-12 12:52:00,
2013-07-12 08:57:00,70.9,66.5,30.15,NNE,26,1.0,2.0,86,0.00,,,0.00,WUHU216DAVISWMX,2013-07-12 12:57:00,
2013-07-12 09:02:00,71.9,67.8,30.15,NE,56,1.0,2.0,87,0.00,,,0.00,WUHU216DAVISWMX,2013-07-12 13:02:00,
2013-07-12 09:07:00,72.5,67.1,30.15,North,8,1.0,3.0,83,0.00,,,0.00,WUHU216DAVISWMX,2013-07-12 13:07:00,
2013-07-12 09:12:00,73.2,67.1,30.15,NNE,33,1.0,3.0,81,0.00,,,0.00,WUHU216DAVISWMX,2013-07-12 13:12:00,
2013-07-12 09:17:00,73.3,67.9,30.15,South,176,1.0,2.0,83,0.00,,,0.00,WUHU216DAVISWMX,2013-07-12 13:17:00,
2013-07-12 09:22:00,73.0,66.9,30.15,SSE,166,1.0,2.0,81,0.00,,,0.00,WUHU216DAVISWMX,2013-07-12 13:22:00,
2013-07-12 09:27:00,73.1,68.0,30.15,ESE,105,1.0,2.0,84,0.00,,,0.00,WUHU216DAVISWMX,2013-07-12 13:27:00,
2013-07-12 09:32:00,73.7,68.3,30.15,SE,125,1.0,4.0,83,0.00,,,0.00,WUHU216DAVISWMX,2013-07-12 13:32:00,
2013-07-12 09:37:00,74.2,68.1,30.15,NE,51,2.0,4.0,81,0.00,,,0.00,WUHU216DAVISWMX,2013-07-12 13:37:00,
2013-07-12 09:42:00,74.8,69.0,30.15,NE,53,1.0,3.0,82,0.00,,,0.00,WUHU216DAVISWMX,2013-07-12 13:42:00,
2013-07-12 09:47:00,75.0,68.5,30.16,SSE,163,2.0,2.0,80,0.00,,,0.00,WUHU216DAVISWMX,2013-07-12 13:47:00,
2013-07-12 09:52:00,75.0,68.5,30.16,NE,56,0.0,2.0,80,0.00,,,0.00,WUHU216DAVISWMX,2013-07-12 13:52:00,
2013-07-12 09:57:00,74.7,67.9,30.16,SSE,151,1.0,6.0,79,0.00,,,0.00,WUHU216DAVISWMX,2013-07-12 13:57:00,
2013-07-12 10:02:00,74.9,68.4,30.16,ENE,61,2.0,6.0,80,0.00,,,0.00,WUHU216DAVISWMX,2013-07-12 14:02:00,
2013-07-12 10:07:00,75.5,68.6,30.16,North,3,1.0,5.0,79,0.00,,,0.00,WUHU216DAVISWMX,2013-07-12 14:07:00,
2013-07-12 10:12:00,75.6,68.7,30.16,North,0,0.0,2.0,79,0.00,,,0.00,WUHU216DAVISWMX,2013-07-12 14:12:00,
2013-07-12 10:17:00,75.6,69.1,30.16,North,0,0.0,2.0,80,0.00,,,0.00,WUHU216DAVISWMX,2013-07-12 14:17:00,
2013-07-12 10:22:00,76.3,69.8,30.17,SE,142,1.0,2.0,80,0.00,,,0.00,WUHU216DAVISWMX,2013-07-12 14:22:00,
2013-07-12 10:27:00,76.9,69.6,30.16,ESE,122,1.0,3.0,78,0.00,,,0.00,WUHU216DAVISWMX,2013-07-12 14:27:00,
2013-07-12 10:32:00,76.6,69.0,30.17,NNW,334,0.0,5.0,77,0.00,,,0.00,WUHU216DAVISWMX,2013-07-12 14:32:00,
2013-07-12 10:37:00,76.3,69.1,30.17,ENE,65,0.0,5.0,78,0.00,,,0.00,WUHU216DAVISWMX,2013-07-12 14:37:00,
2013-07-12 10:42:00,76.9,70.0,30.17,SE,127,0.0,3.0,79,0.00,,,0.00,WUHU216DAVISWMX,2013-07-12 14:42:00,
2013-07-12 10:47:00,77.0,69.4,30.17,NE,51,3.0,3.0,77,0.00,,,0.00,WUHU216DAVISWMX,2013-07-12 14:47:00,
2013-07-12 10:52:00,76.6,69.0,30.17,NE,35,1.0,4.0,77,0.00,,,0.00,WUHU216DAVISWMX,2013-07-12 14:52:00,
2013-07-12 10:57:00,76.8,70.3,30.17,ENE,71,1.0,4.0,80,0.00,,,0.00,WUHU216DAVISWMX,2013-07-12 14:57:00,
2013-07-12 11:02:00,77.0,69.4,30.17,ESE,114,1.0,6.0,77,0.00,,,0.00,WUHU216DAVISWMX,2013-07-12 15:02:00,
2013-07-12 11:07:00,76.5,69.3,30.17,NE,43,1.0,6.0,78,0.00,,,0.00,WUHU216DAVISWMX,2013-07-12 15:07:00,
2013-07-12 11:12:00,76.6,69.0,30.17,NE,54,1.0,4.0,77,0.00,,,0.00,WUHU216DAVISWMX,2013-07-12 15:12:00,
2013-07-12 11:17:00,76.4,69.9,30.17,NE,41,0.0,3.0,80,0.00,,,0.00,WUHU216DAVISWMX,2013-07-12 15:17:00,
2013-07-12 11:22:00,76.6,70.1,30.17,South,171,0.0,4.0,80,0.00,,,0.00,WUHU216DAVISWMX,2013-07-12 15:22:00,
2013-07-12 11:27:00,76.9,69.6,30.18,East,80,3.0,5.0,78,0.00,,,0.00,WUHU216DAVISWMX,2013-07-12 15:27:00,
2013-07-12 11:32:00,76.7,70.2,30.17,South,177,0.0,5.0,80,0.00,,,0.00,WUHU216DAVISWMX,2013-07-12 15:32:00,
2013-07-12 11:37:00,76.8,69.9,30.17,ENE,58,2.0,3.0,79,0.00,,,0.00,WUHU216DAVISWMX,2013-07-12 15:37:00,
2013-07-12 11:42:00,76.4,69.5,30.17,SE,143,0.0,3.0,79,0.00,,,0.00,WUHU216DAVISWMX,2013-07-12 15:42:00,
2013-07-12 11:47:00,76.4,69.5,30.17,ENE,78,1.0,6.0,79,0.00,,,0.00,WUHU216DAVISWMX,2013-07-12 15:47:00,
2013-07-12 11:52:00,76.4,69.5,30.17,SE,125,0.0,6.0,79,0.00,,,0.00,WUHU216DAVISWMX,2013-07-12 15:52:00,
2013-07-12 11:57:00,76.8,70.3,30.18,NE,39,0.0,5.0,80,0.00,,,0.00,WUHU216DAVISWMX,2013-07-12 15:57:00,
2013-07-12 12:02:00,76.7,69.1,30.18,NE,52,1.0,3.0,77,0.00,,,0.00,WUHU216DAVISWMX,2013-07-12 16:02:00,
2013-07-12 12:07:00,76.4,69.9,30.18,NE,52,1.0,2.0,80,0.00,,,0.00,WUHU216DAVISWMX,2013-07-12 16:07:00,
2013-07-12 12:12:00,76.8,70.3,30.18,ENE,61,1.0,3.0,80,0.00,,,0.00,WUHU216DAVISWMX,2013-07-12 16:12:00,
2013-07-12 12:17:00,76.6,69.7,30.18,North,355,0.0,3.0,79,0.00,,,0.00,WUHU216DAVISWMX,2013-07-12 16:17:00,
2013-07-12 12:22:00,76.6,68.6,30.17,NNE,33,0.0,5.0,76,0.00,,,0.00,WUHU216DAVISWMX,2013-07-12 16:22:00,
2013-07-12 12:27:00,76.8,69.2,30.17,ESE,123,0.0,5.0,77,0.00,,,0.00,WUHU216DAVISWMX,2013-07-12 16:27:00,
2013-07-12 12:32:00,76.6,67.9,30.17,NE,38,2.0,4.0,74,0.00,,,0.00,WUHU216DAVISWMX,2013-07-12 16:32:00,
2013-07-12 12:37:00,76.6,68.2,30.17,NNW,331,1.0,4.0,75,0.00,,,0.00,WUHU216DAVISWMX,2013-07-12 16:37:00,
2013-07-12 12:42:00,76.9,68.5,30.17,ENE,78,0.0,5.0,75,0.00,,,0.00,WUHU216DAVISWMX,2013-07-12 16:42:00,
2013-07-12 12:47:00,77.3,69.3,30.17,East,88,1.0,5.0,76,0.00,,,0.00,WUHU216DAVISWMX,2013-07-12 16:47:00,
2013-07-12 12:52:00,77.7,70.1,30.17,NE,41,0.0,3.0,77,0.00,,,0.00,WUHU216DAVISWMX,2013-07-12 16:52:00,
2013-07-12 12:57:00,77.6,68.4,30.17,ENE,74,1.0,3.0,73,0.00,,,0.00,WUHU216DAVISWMX,2013-07-12 16:57:00,
2013-07-12 13:02:00,77.7,68.9,30.17,ENE,58,2.0,3.0,74,0.00,,,0.00,WUHU216DAVISWMX,2013-07-12 17:02:00,
2013-07-12 13:07:00,77.9,68.7,30.17,NE,48,1.0,3.0,73,0.00,,,0.00,WUHU216DAVISWMX,2013-07-12 17:07:00,
2013-07-12 13:12:00,77.7,68.5,30.17,NE,50,0.0,3.0,73,0.00,,,0.00,WUHU216DAVISWMX,2013-07-12 17:12:00,
2013-07-12 13:17:00,77.7,68.5,30.18,NE,50,1.0,4.0,73,0.00,,,0.00,WUHU216DAVISWMX,2013-07-12 17:17:00,
2013-07-12 13:22:00,78.0,69.2,30.18,South,187,1.0,4.0,74,0.00,,,0.00,WUHU216DAVISWMX,2013-07-12 17:22:00,
2013-07-12 13:27:00,78.0,68.8,30.18,ENE,70,1.0,4.0,73,0.00,,,0.00,WUHU216DAVISWMX,2013-07-12 17:27:00,
2013-07-12 13:32:00,78.1,68.5,30.18,ESE,119,2.0,6.0,72,0.00,,,0.00,WUHU216DAVISWMX,2013-07-12 17:32:00,
2013-07-12 13:37:00,78.2,68.2,30.18,North,0,3.0,6.0,71,0.00,,,0.00,WUHU216DAVISWMX,2013-07-12 17:37:00,
2013-07-12 13:43:00,78.0,67.2,30.18,NNE,13,0.0,4.0,69,0.00,,,0.00,WUHU216DAVISWMX,2013-07-12 17:43:00,
2013-07-12 13:48:00,77.8,67.4,30.18,NNE,28,0.0,6.0,70,0.00,,,0.00,WUHU216DAVISWMX,2013-07-12 17:48:00,
2013-07-12 13:53:00,77.8,66.6,30.18,NE,47,5.0,6.0,68,0.00,,,0.00,WUHU216DAVISWMX,2013-07-12 17:53:00,
2013-07-12 13:58:00,77.6,66.4,30.18,NNE,28,3.0,6.0,68,0.00,,,0.00,WUHU216DAVISWMX,2013-07-12 17:58:00,
2013-07-12 14:03:00,77.3,65.7,30.18,North,11,0.0,6.0,67,0.00,,,0.00,WUHU216DAVISWMX,2013-07-12 18:03:00,
2013-07-12 14:08:00,77.3,66.1,30.18,NE,49,1.0,6.0,68,0.00,,,0.00,WUHU216DAVISWMX,2013-07-12 18:08:00,
2013-07-12 14:13:00,77.6,65.6,30.18,NE,54,0.0,6.0,66,0.00,,,0.00,WUHU216DAVISWMX,2013-07-12 18:13:00,
2013-07-12 14:19:00,77.7,66.5,30.17,SE,145,2.0,5.0,68,0.00,,,0.00,WUHU216DAVISWMX,2013-07-12 18:19:00,
2013-07-12 14:24:00,78.0,67.2,30.18,ESE,107,1.0,5.0,69,0.00,,,0.00,WUHU216DAVISWMX,2013-07-12 18:24:00,
2013-07-12 14:29:00,78.1,68.1,30.18,South,174,2.0,3.0,71,0.00,,,0.00,WUHU216DAVISWMX,2013-07-12 18:29:00,
2013-07-12 14:34:00,78.3,66.7,30.18,NE,49,1.0,8.0,67,0.00,,,0.00,WUHU216DAVISWMX,2013-07-12 18:34:00,
2013-07-12 14:39:00,78.3,66.7,30.18,East,90,1.0,8.0,67,0.00,,,0.00,WUHU216DAVISWMX,2013-07-12 18:39:00,
2013-07-12 14:44:00,78.2,67.4,30.18,NE,48,0.0,4.0,69,0.00,,,0.00,WUHU216DAVISWMX,2013-07-12 18:44:00,
2013-07-12 14:49:00,78.2,66.1,30.18,NNE,12,3.0,4.0,66,0.00,,,0.00,WUHU216DAVISWMX,2013-07-12 18:49:00,
2013-07-12 14:54:00,78.1,66.9,30.18,East,83,0.0,4.0,68,0.00,,,0.00,WUHU216DAVISWMX,2013-07-12 18:54:00,
2013-07-12 14:59:00,78.4,66.3,30.18,East,81,1.0,4.0,66,0.00,,,0.00,WUHU216DAVISWMX,2013-07-12 18:59:00,
2013-07-12 15:05:00,78.4,66.8,30.18,SE,137,1.0,3.0,67,0.00,,,0.00,WUHU216DAVISWMX,2013-07-12 19:05:00,
2013-07-12 15:10:00,78.1,64.7,30.18,ESE,108,1.0,6.0,63,0.00,,,0.00,WUHU216DAVISWMX,2013-07-12 19:10:00,
2013-07-12 15:15:00,78.0,65.5,30.18,SE,140,1.0,6.0,65,0.00,,,0.00,WUHU216DAVISWMX,2013-07-12 19:15:00,
2013-07-12 15:20:00,78.0,65.1,30.18,NNE,20,2.0,6.0,64,0.00,,,0.00,WUHU216DAVISWMX,2013-07-12 19:20:00,
2013-07-12 15:25:00,77.9,65.0,30.18,ENE,66,0.0,3.0,64,0.00,,,0.00,WUHU216DAVISWMX,2013-07-12 19:25:00,
2013-07-12 15:30:00,78.1,66.5,30.18,NE,48,1.0,3.0,67,0.00,,,0.00,WUHU216DAVISWMX,2013-07-12 19:30:00,
2013-07-12 15:35:00,78.1,66.0,30.18,NNE,22,0.0,3.0,66,0.00,,,0.00,WUHU216DAVISWMX,2013-07-12 19:35:00,
2013-07-12 15:40:00,77.9,65.4,30.18,ESE,106,3.0,4.0,65,0.00,,,0.00,WUHU216DAVISWMX,2013-07-12 19:40:00,
2013-07-12 15:45:00,77.8,64.9,30.18,South,170,1.0,5.0,64,0.00,,,0.00,WUHU216DAVISWMX,2013-07-12 19:45:00,
2013-07-12 15:50:00,77.8,65.8,30.18,NE,34,0.0,5.0,66,0.00,,,0.00,WUHU216DAVISWMX,2013-07-12 19:50:00,
2013-07-12 15:55:00,77.6,64.7,30.18,NE,53,1.0,4.0,64,0.00,,,0.00,WUHU216DAVISWMX,2013-07-12 19:55:00,
2013-07-12 16:00:00,77.4,64.5,30.18,SSE,166,1.0,3.0,64,0.00,,,0.00,WUHU216DAVISWMX,2013-07-12 20:00:00,
2013-07-12 16:05:00,77.2,64.8,30.18,NNE,20,1.0,6.0,65,0.00,,,0.00,WUHU216DAVISWMX,2013-07-12 20:05:00,
2013-07-12 16:11:00,76.8,65.7,30.18,SE,139,1.0,6.0,68,0.00,,,0.00,WUHU216DAVISWMX,2013-07-12 20:11:00,
2013-07-12 16:16:00,77.0,65.8,30.18,NE,34,1.0,4.0,68,0.00,,,0.00,WUHU216DAVISWMX,2013-07-12 20:16:00,
2013-07-12 16:21:00,76.9,66.6,30.18,East,85,0.0,4.0,70,0.00,,,0.00,WUHU216DAVISWMX,2013-07-12 20:21:00,
2013-07-12 16:26:00,76.9,64.9,30.18,ESE,102,0.0,4.0,66,0.00,,,0.00,WUHU216DAVISWMX,2013-07-12 20:26:00,
2013-07-12 16:31:00,76.9,66.2,30.18,ESE,107,1.0,6.0,69,0.00,,,0.00,WUHU216DAVISWMX,2013-07-12 20:31:00,
2013-07-12 16:36:00,76.9,64.9,30.18,SSE,160,1.0,6.0,66,0.00,,,0.00,WUHU216DAVISWMX,2013-07-12 20:36:00,
2013-07-12 16:41:00,76.7,65.1,30.18,SE,132,1.0,3.0,67,0.00,,,0.00,WUHU216DAVISWMX,2013-07-12 20:41:00,
2013-07-12 16:46:00,76.6,65.9,30.19,NE,45,0.0,6.0,69,0.00,,,0.00,WUHU216DAVISWMX,2013-07-12 20:46:00,
2013-07-12 16:51:00,76.3,66.4,30.19,SSE,148,1.0,6.0,71,0.00,,,0.00,WUHU216DAVISWMX,2013-07-12 20:51:00,
2013-07-12 16:56:00,76.3,66.0,30.19,SSE,148,0.0,2.0,70,0.00,,,0.00,WUHU216DAVISWMX,2013-07-12 20:56:00,
2013-07-12 17:01:00,76.3,66.0,30.19,SSE,148,0.0,2.0,70,0.00,,,0.00,WUHU216DAVISWMX,2013-07-12 21:01:00,
2013-07-12 17:06:00,76.2,66.7,30.19,ENE,58,0.0,3.0,72,0.00,,,0.00,WUHU216DAVISWMX,2013-07-12 21:06:00,
2013-07-12 17:11:00,76.1,65.0,30.19,NE,56,1.0,3.0,68,0.00,,,0.00,WUHU216DAVISWMX,2013-07-12 21:11:00,
2013-07-12 17:16:00,76.1,65.0,30.19,NE,44,1.0,3.0,68,0.00,,,0.00,WUHU216DAVISWMX,2013-07-12 21:16:00,
2013-07-12 17:21:00,76.3,65.2,30.19,NE,44,2.0,3.0,68,0.00,,,0.00,WUHU216DAVISWMX,2013-07-12 21:21:00,
2013-07-12 17:26:00,76.2,65.5,30.19,SE,136,0.0,3.0,69,0.00,,,0.00,WUHU216DAVISWMX,2013-07-12 21:26:00,
2013-07-12 17:31:00,76.0,65.7,30.19,SE,142,1.0,6.0,70,0.00,,,0.00,WUHU216DAVISWMX,2013-07-12 21:31:00,
2013-07-12 17:36:00,75.7,65.8,30.18,East,91,2.0,6.0,71,0.00,,,0.00,WUHU216DAVISWMX,2013-07-12 21:36:00,
2013-07-12 17:41:00,75.8,65.5,30.18,South,178,0.0,3.0,70,0.00,,,0.00,WUHU216DAVISWMX,2013-07-12 21:41:00,
2013-07-12 17:46:00,75.5,65.6,30.18,SSE,149,0.0,3.0,71,0.00,,,0.00,WUHU216DAVISWMX,2013-07-12 21:46:00,
2013-07-12 17:51:00,75.5,65.6,30.19,ENE,71,2.0,3.0,71,0.00,,,0.00,WUHU216DAVISWMX,2013-07-12 21:51:00,
2013-07-12 17:56:00,75.5,65.6,30.19,SSE,158,1.0,5.0,71,0.00,,,0.00,WUHU216DAVISWMX,2013-07-12 21:56:00,
2013-07-12 18:01:00,75.6,66.1,30.19,South,170,0.0,5.0,72,0.00,,,0.00,WUHU216DAVISWMX,2013-07-12 22:01:00,
2013-07-12 18:07:00,75.5,66.4,30.19,SSE,149,0.0,4.0,73,0.00,,,0.00,WUHU216DAVISWMX,2013-07-12 22:07:00,
2013-07-12 18:12:00,75.2,66.1,30.19,ENE,69,1.0,3.0,73,0.00,,,0.00,WUHU216DAVISWMX,2013-07-12 22:12:00,
2013-07-12 18:17:00,75.1,66.0,30.19,East,101,1.0,3.0,73,0.00,,,0.00,WUHU216DAVISWMX,2013-07-12 22:17:00,
2013-07-12 18:22:00,75.1,66.0,30.19,East,101,2.0,2.0,73,0.00,,,0.00,WUHU216DAVISWMX,2013-07-12 22:22:00,
2013-07-12 18:27:00,74.9,65.8,30.19,East,101,0.0,2.0,73,0.00,,,0.00,WUHU216DAVISWMX,2013-07-12 22:27:00,
2013-07-12 18:32:00,74.8,66.5,30.19,East,101,0.0,1.0,75,0.00,,,0.00,WUHU216DAVISWMX,2013-07-12 22:32:00,
2013-07-12 18:37:00,74.4,65.4,30.19,ESE,105,0.0,2.0,73,0.00,,,0.00,WUHU216DAVISWMX,2013-07-12 22:37:00,
2013-07-12 18:43:00,74.4,65.7,30.19,ESE,105,0.0,2.0,74,0.00,,,0.00,WUHU216DAVISWMX,2013-07-12 22:43:00,
2013-07-12 18:48:00,74.2,65.5,30.19,ESE,105,0.0,1.0,74,0.00,,,0.00,WUHU216DAVISWMX,2013-07-12 22:48:00,
2013-07-12 18:53:00,74.1,65.8,30.19,ESE,105,0.0,0.0,75,0.00,,,0.00,WUHU216DAVISWMX,2013-07-12 22:53:00,
2013-07-12 18:58:00,74.0,65.7,30.19,ESE,106,0.0,0.0,75,0.00,,,0.00,WUHU216DAVISWMX,2013-07-12 22:58:00,
2013-07-12 19:03:00,73.8,66.3,30.19,ESE,105,0.0,1.0,77,0.00,,,0.00,WUHU216DAVISWMX,2013-07-12 23:03:00,
2013-07-12 19:08:00,73.7,66.2,30.19,ESE,106,0.0,1.0,77,0.00,,,0.00,WUHU216DAVISWMX,2013-07-12 23:08:00,
2013-07-12 19:14:00,73.6,65.7,30.19,ESE,105,0.0,1.0,76,0.00,,,0.00,WUHU216DAVISWMX,2013-07-12 23:14:00,
2013-07-12 19:19:00,73.7,66.5,30.20,ESE,105,0.0,1.0,78,0.00,,,0.00,WUHU216DAVISWMX,2013-07-12 23:19:00,
2013-07-12 19:24:00,73.5,65.6,30.20,ESE,105,0.0,0.0,76,0.00,,,0.00,WUHU216DAVISWMX,2013-07-12 23:24:00,
2013-07-12 19:29:00,73.4,66.2,30.20,ESE,105,0.0,0.0,78,0.00,,,0.00,WUHU216DAVISWMX,2013-07-12 23:29:00,
2013-07-12 19:34:00,73.4,65.9,30.20,ESE,105,0.0,0.0,77,0.00,,,0.00,WUHU216DAVISWMX,2013-07-12 23:34:00,
2013-07-12 19:39:00,73.2,65.7,30.20,ESE,105,0.0,0.0,77,0.00,,,0.00,WUHU216DAVISWMX,2013-07-12 23:39:00,
2013-07-12 19:44:00,73.0,66.2,30.20,ESE,105,0.0,0.0,79,0.00,,,0.00,WUHU216DAVISWMX,2013-07-12 23:44:00,
2013-07-12 19:49:00,73.0,66.6,30.20,ESE,105,0.0,0.0,80,0.00,,,0.00,WUHU216DAVISWMX,2013-07-12 23:49:00,
2013-07-12 19:54:00,72.7,66.6,30.20,ESE,105,0.0,0.0,81,0.00,,,0.00,WUHU216DAVISWMX,2013-07-12 23:54:00,
2013-07-12 19:59:00,72.5,66.8,30.21,ESE,105,0.0,0.0,82,0.00,,,0.00,WUHU216DAVISWMX,2013-07-12 23:59:00,
2013-07-12 20:05:00,72.4,66.3,30.21,ESE,106,0.0,0.0,81,0.00,,,0.00,WUHU216DAVISWMX,2013-07-13 00:05:00,
2013-07-12 20:10:00,72.2,66.5,30.21,ESE,105,0.0,0.0,82,0.00,,,0.00,WUHU216DAVISWMX,2013-07-13 00:10:00,
2013-07-12 20:15:00,72.2,66.5,30.21,ESE,105,0.0,0.0,82,0.00,,,0.00,WUHU216DAVISWMX,2013-07-13 00:15:00,
2013-07-12 20:20:00,71.9,66.5,30.21,ESE,105,0.0,0.0,83,0.00,,,0.00,WUHU216DAVISWMX,2013-07-13 00:20:00,
2013-07-12 20:25:00,71.7,66.3,30.21,ESE,106,0.0,0.0,83,0.00,,,0.00,WUHU216DAVISWMX,2013-07-13 00:25:00,
2013-07-12 20:30:00,71.6,66.5,30.21,ESE,105,0.0,0.0,84,0.00,,,0.00,WUHU216DAVISWMX,2013-07-13 00:30:00,
2013-07-12 20:35:00,71.5,66.8,30.21,ESE,105,0.0,0.0,85,0.00,,,0.00,WUHU216DAVISWMX,2013-07-13 00:35:00,
2013-07-12 20:40:00,71.2,66.8,30.21,ESE,105,0.0,0.0,86,0.00,,,0.00,WUHU216DAVISWMX,2013-07-13 00:40:00,
2013-07-12 20:45:00,71.0,66.3,30.22,ESE,105,0.0,0.0,85,0.00,,,0.00,WUHU216DAVISWMX,2013-07-13 00:45:00,
2013-07-12 20:50:00,71.0,66.6,30.22,ESE,105,0.0,0.0,86,0.00,,,0.00,WUHU216DAVISWMX,2013-07-13 00:50:00,
2013-07-12 20:55:00,70.8,66.4,30.22,ESE,106,0.0,0.0,86,0.00,,,0.00,WUHU216DAVISWMX,2013-07-13 00:55:00,
2013-07-12 21:01:00,70.7,66.3,30.22,ESE,105,0.0,0.0,86,0.00,,,0.00,WUHU216DAVISWMX,2013-07-13 01:01:00,
2013-07-12 21:06:00,70.5,66.5,30.22,ESE,105,0.0,0.0,87,0.00,,,0.00,WUHU216DAVISWMX,2013-07-13 01:06:00,
2013-07-12 21:11:00,70.3,66.3,30.22,ESE,106,0.0,0.0,87,0.00,,,0.00,WUHU216DAVISWMX,2013-07-13 01:11:00,
2013-07-12 21:16:00,70.2,66.5,30.22,ESE,106,0.0,0.0,88,0.00,,,0.00,WUHU216DAVISWMX,2013-07-13 01:16:00,
2013-07-12 21:21:00,70.3,66.6,30.22,ESE,105,0.0,0.0,88,0.00,,,0.00,WUHU216DAVISWMX,2013-07-13 01:21:00,
2013-07-12 21:26:00,70.0,66.3,30.23,ESE,105,0.0,0.0,88,0.00,,,0.00,WUHU216DAVISWMX,2013-07-13 01:26:00,
2013-07-12 21:31:00,70.0,66.6,30.22,ESE,105,0.0,0.0,89,0.00,,,0.00,WUHU216DAVISWMX,2013-07-13 01:31:00,
2013-07-12 21:36:00,69.8,66.4,30.23,ESE,105,0.0,0.0,89,0.00,,,0.00,WUHU216DAVISWMX,2013-07-13 01:36:00,
2013-07-12 21:42:00,69.8,66.4,30.23,ESE,105,0.0,0.0,89,0.00,,,0.00,WUHU216DAVISWMX,2013-07-13 01:42:00,
2013-07-12 21:47:00,69.7,66.3,30.23,ESE,105,0.0,0.0,89,0.00,,,0.00,WUHU216DAVISWMX,2013-07-13 01:47:00,
2013-07-12 21:52:00,69.8,66.7,30.23,ESE,105,0.0,0.0,90,0.00,,,0.00,WUHU216DAVISWMX,2013-07-13 01:52:00,
2013-07-12 21:57:00,69.7,66.6,30.23,ESE,105,0.0,0.0,90,0.00,,,0.00,WUHU216DAVISWMX,2013-07-13 01:57:00,
2013-07-12 22:02:00,69.6,66.5,30.23,ESE,106,0.0,0.0,90,0.00,,,0.00,WUHU216DAVISWMX,2013-07-13 02:02:00,
2013-07-12 22:07:00,69.3,66.2,30.23,ESE,106,0.0,0.0,90,0.00,,,0.00,WUHU216DAVISWMX,2013-07-13 02:07:00,
2013-07-12 22:12:00,69.3,66.8,30.23,ESE,106,0.0,0.0,92,0.00,,,0.00,WUHU216DAVISWMX,2013-07-13 02:12:00,
2013-07-12 22:17:00,69.3,66.8,30.23,ESE,105,0.0,0.0,92,0.00,,,0.00,WUHU216DAVISWMX,2013-07-13 02:17:00,
2013-07-12 22:22:00,69.2,66.4,30.24,ESE,105,0.0,0.0,91,0.00,,,0.00,WUHU216DAVISWMX,2013-07-13 02:22:00,
2013-07-12 22:27:00,69.0,66.6,30.24,ESE,105,0.0,0.0,92,0.00,,,0.00,WUHU216DAVISWMX,2013-07-13 02:27:00,
2013-07-12 22:33:00,69.0,66.6,30.24,ESE,105,0.0,0.0,92,0.00,,,0.00,WUHU216DAVISWMX,2013-07-13 02:33:00,
2013-07-12 22:38:00,68.9,66.5,30.24,ESE,105,0.0,0.0,92,0.00,,,0.00,WUHU216DAVISWMX,2013-07-13 02:38:00,
2013-07-12 22:43:00,68.8,66.7,30.24,ESE,105,0.0,0.0,93,0.00,,,0.00,WUHU216DAVISWMX,2013-07-13 02:43:00,
2013-07-12 22:48:00,68.8,66.7,30.25,ESE,106,0.0,0.0,93,0.00,,,0.00,WUHU216DAVISWMX,2013-07-13 02:48:00,
2013-07-12 22:53:00,68.6,66.2,30.25,ESE,106,0.0,0.0,92,0.00,,,0.00,WUHU216DAVISWMX,2013-07-13 02:53:00,
2013-07-12 22:58:00,68.5,66.1,30.25,ESE,105,0.0,0.0,92,0.00,,,0.00,WUHU216DAVISWMX,2013-07-13 02:58:00,
2013-07-12 23:03:00,68.5,66.1,30.25,ESE,105,0.0,0.0,92,0.00,,,0.00,WUHU216DAVISWMX,2013-07-13 03:03:00,
2013-07-12 23:08:00,68.3,65.9,30.25,ESE,105,0.0,0.0,92,0.00,,,0.00,WUHU216DAVISWMX,2013-07-13 03:08:00,
2013-07-12 23:13:00,68.2,66.1,30.25,ESE,105,0.0,0.0,93,0.00,,,0.00,WUHU216DAVISWMX,2013-07-13 03:13:00,
2013-07-12 23:18:00,68.3,66.2,30.25,ESE,105,0.0,0.0,93,0.00,,,0.00,WUHU216DAVISWMX,2013-07-13 03:18:00,
2013-07-12 23:23:00,68.1,66.0,30.25,ESE,105,0.0,0.0,93,0.00,,,0.00,WUHU216DAVISWMX,2013-07-13 03:23:00,
2013-07-12 23:28:00,68.2,66.1,30.25,ESE,105,0.0,0.0,93,0.00,,,0.00,WUHU216DAVISWMX,2013-07-13 03:28:00,
2013-07-12 23:33:00,68.0,66.2,30.26,ESE,105,0.0,0.0,94,0.00,,,0.00,WUHU216DAVISWMX,2013-07-13 03:33:00,
2013-07-12 23:39:00,67.9,66.1,30.26,ESE,105,0.0,0.0,94,0.00,,,0.00,WUHU216DAVISWMX,2013-07-13 03:39:00,
2013-07-12 23:44:00,68.0,66.2,30.26,ESE,105,0.0,0.0,94,0.00,,,0.00,WUHU216DAVISWMX,2013-07-13 03:44:00,
2013-07-12 23:49:00,67.8,66.0,30.26,ESE,105,0.0,0.0,94,0.00,,,0.00,WUHU216DAVISWMX,2013-07-13 03:49:00,
2013-07-12 23:54:00,67.8,66.0,30.26,ESE,105,0.0,0.0,94,0.00,,,0.00,WUHU216DAVISWMX,2013-07-13 03:54:00,
2013-07-12 23:59:00,67.8,66.0,30.26,ESE,106,0.0,0.0,94,0.00,,,0.00,WUHU216DAVISWMX,2013-07-13 03:59:00,